CW6318 Weather Reports


Display with metric or nautical units.
time (UTC)temp
F
wind
direction
speed
MPH
gust
MPH
rain 1hr
in
rain 24hr
in
rain mn
in
humidity
%
barometer
mb
20260506005459 61 252 1.0 5.0 0.00 0.00 0.00 75 998.9
20260506005002 61 242 3.0 6.0 0.00 0.00 0.00 75 999.0
20260506004458 61 223 3.0 6.0 0.00 0.00 0.00 74 998.9
20260506003959 61 283 4.0 7.0 0.00 0.00 0.00 74 998.9
20260506003501 61 257 3.0 7.0 0.00 0.00 0.00 74 999.0
20260506002959 61 279 2.0 6.0 0.00 0.00 0.00 73 999.0
20260506002500 62 237 1.0 6.0 0.00 0.00 0.00 72 999.0
20260506002000 63 247 0.0 5.0 0.00 0.00 0.00 72 999.0
20260506001500 63 280 0.0 6.0 0.00 0.00 0.00 73 999.0
20260506000500 63 257 3.0 6.0 0.00 0.00 0.00 71 998.9
20260506000008 63 277 1.0 7.0 0.00 0.00 0.00 71 998.9
20260505235506 63 236 2.0 7.0 0.00 0.00 0.00 70 999.0
20260505235002 63 250 1.0 8.0 0.00 0.00 0.00 71 999.0
20260505234501 63 223 1.0 10.0 0.00 0.00 0.00 71 999.0
20260505232959 64 253 1.0 6.0 0.00 0.00 0.00 71 999.0
20260505232459 64 236 3.0 6.0 0.00 0.00 0.00 71 999.0
20260505231959 64 246 1.0 5.0 0.00 0.00 0.00 70 999.0
20260505231501 64 300 3.0 5.0 0.00 0.00 0.00 70 999.0
20260505231002 64 308 1.0 5.0 0.00 0.00 0.00 71 999.1
20260505230503 63 258 2.0 5.0 0.00 0.00 0.00 72 999.1
20260505230000 64 304 5.0 6.0 0.00 0.00 0.00 70 999.2
20260505225459 64 208 4.0 7.0 0.00 0.00 0.00 71 999.2
20260505224502 64 312 1.0 7.0 0.00 0.00 0.00 73 999.1
20260505224000 65 258 1.0 7.0 0.00 0.00 0.00 70 999.2
20260505223505 63 267 1.0 8.0 0.00 0.00 0.00 71 999.3
20260505223000 64 213 3.0 8.0 0.00 0.00 0.00 70 999.3
20260505221458 65 250 1.0 6.0 0.00 0.00 0.00 69 999.2
20260505220958 64 260 2.0 5.0 0.00 0.00 0.00 70 999.2
20260505220000 65 275 4.0 8.0 0.00 0.00 0.00 70 999.3
20260505214001 65 215 6.0 6.0 0.00 0.00 0.00 72 999.4
20260505213502 65 240 1.0 5.0 0.00 0.00 0.00 70 999.4
20260505213000 64 225 3.0 5.0 0.00 0.00 0.00 71 999.4
20260505212459 64 262 2.0 5.0 0.00 0.00 0.00 72 999.4
20260505211501 64 255 0.0 7.0 0.00 0.00 0.00 71 999.5
20260505210502 65 248 2.0 6.0 0.00 0.00 0.00 72 999.4
20260505205502 64 260 0.0 9.0 0.00 0.00 0.00 71 999.6
20260505205000 64 304 2.0 6.0 0.00 0.00 0.00 73 999.6
20260505204502 63 221 2.0 6.0 0.00 0.00 0.00 74 999.7
20260505203959 63 219 3.0 6.0 0.00 0.00 0.00 74 999.6
20260505203459 63 272 5.0 9.0 0.00 0.00 0.00 73 999.8
20260505202000 61 216 3.0 6.0 0.00 0.00 0.00 75 999.8
20260505201510 61 246 2.0 6.0 0.00 0.00 0.00 76 999.8
20260505200959 61 210 2.0 6.0 0.00 0.00 0.00 76 999.9
20260505200459 61 219 2.0 6.0 0.00 0.00 0.00 77 999.8
20260505195516 60 294 2.0 4.0 0.00 0.00 0.00 77 999.8
20260505194959 60 254 1.0 4.0 0.00 0.00 0.00 77 999.9
20260505194013 60 275 0.0 7.0 0.00 0.00 0.00 77 999.9
20260505193511 59 257 2.0 7.0 0.00 0.00 0.00 77 1000.0
20260505192959 59 278 0.0 5.0 0.00 0.00 0.00 77 1000.0
20260505192459 59 256 2.0 4.0 0.00 0.00 0.00 77 1000.0
20260505191503 58 207 1.0 4.0 0.00 0.00 0.00 77 1000.1
20260505191005 58 256 2.0 5.0 0.00 0.00 0.00 77 1000.1
20260505185015 57 125 0.0 3.0 0.00 0.00 0.00 77 1000.1
20260505184500 57 213 0.0 3.0 0.00 0.00 0.00 77 1000.2
20260505183516 57 253 1.0 4.0 0.00 0.00 0.00 78 1000.2
20260505182014 56 296 0.0 3.0 0.00 0.00 0.00 76 1000.3
20260505181515 56 165 0.0 5.0 0.00 0.00 0.00 77 1000.2
20260505180958 56 292 1.0 5.0 0.00 0.00 0.00 77 1000.2
20260505180501 56 233 0.0 5.0 0.00 0.00 0.00 77 1000.1
20260505180001 55 230 0.0 5.0 0.00 0.00 0.00 77 1000.1
20260505175459 56 301 3.0 4.0 0.00 0.00 0.00 77 1000.1
20260505174959 55 262 2.0 7.0 0.00 0.00 0.00 76 1000.1
20260505174459 55 259 0.0 7.0 0.00 0.00 0.00 77 1000.1
20260505173459 55 299 0.0 4.0 0.00 0.00 0.00 76 1000.0
20260505173000 55 275 1.0 3.0 0.00 0.00 0.00 75 1000.0
20260505172500 55 356 0.0 6.0 0.00 0.00 0.00 76 1000.0
20260505171459 55 286 0.0 3.0 0.00 0.00 0.00 75 999.9
20260505170959 55 231 2.0 4.0 0.00 0.00 0.00 74 999.9
20260505170459 54 249 0.0 4.0 0.00 0.00 0.00 74 999.9
20260505170002 54 258 2.0 2.0 0.00 0.00 0.00 73 999.9
20260505165500 54 227 2.0 2.0 0.00 0.00 0.00 72 999.9
20260505164958 54 258 1.0 3.0 0.00 0.00 0.00 72 999.8
20260505164459 53 258 0.0 3.0 0.00 0.00 0.00 71 999.8
20260505163958 53 294 0.0 2.0 0.00 0.00 0.00 70 999.8
20260505163500 52 294 0.0 2.0 0.00 0.00 0.00 68 999.8
20260505162958 52 296 0.0 3.0 0.00 0.00 0.00 68 999.8
20260505162500 52 300 0.0 3.0 0.00 0.00 0.00 68 999.8
20260505161959 52 293 0.0 3.0 0.00 0.00 0.00 68 999.7
20260505160959 51 226 0.0 4.0 0.00 0.00 0.00 67 999.7
20260505160459 51 258 0.0 4.0 0.00 0.00 0.00 67 999.7
20260505152459 51 217 0.0 3.0 0.00 0.00 0.00 66 999.6
20260505152000 51 217 0.0 3.0 0.00 0.00 0.00 66 999.6
20260505151459 50 217 0.0 4.0 0.00 0.00 0.00 66 999.5
20260505151000 50 217 1.0 4.0 0.00 0.00 0.00 65 999.4
20260505140459 0 0.0 0.0 0.00 0.00 0.00 998.9
20260505125001 0 0.0 0.0 0.00 0.00 0.00 998.5
20260505123500 0 0.0 0.0 0.00 0.00 0.00 998.4
20260505123004 0 0.0 0.0 0.00 0.00 0.00 998.5
20260505122001 0 0.0 0.0 0.00 0.00 0.00 998.5
20260505121459 0 0.0 0.0 0.00 0.00 0.00 998.4
20260505120958 0 0.0 0.0 0.00 0.00 0.00 998.4
20260505120500 0 0.0 0.0 0.00 0.00 0.00 998.3
20260505115958 0 0.0 0.0 0.00 0.00 0.00 998.4
20260505114958 0 0.0 0.0 0.00 0.00 0.00 998.4
20260505114459 0 0.0 0.0 0.00 0.00 0.00 998.4
20260505113958 0 0.0 0.0 0.00 0.00 0.00 998.4
20260505113458 0 0.0 0.0 0.00 0.00 0.00 998.3
20260505112957 0 0.0 0.0 0.00 0.00 0.00 998.3
20260505112459 0 0.0 0.0 0.00 0.00 0.00 998.2
20260505112012 0 0.0 0.0 0.00 0.00 0.00 998.2
20260505111500 0 0.0 0.0 0.00 0.00 0.00 998.1
20260505111002 0 0.0 0.0 0.00 0.00 0.00 998.1
20260505110502 0 0.0 0.0 0.00 0.00 0.00 998.1
20260505102008 0 0.0 0.0 0.00 0.00 0.00 997.8
20260505101459 0 0.0 0.0 0.00 0.00 0.00 997.8
20260505100000 0 0.0 0.0 0.00 0.00 0.00 997.8
20260505095000 0 0.0 0.0 0.00 0.00 0.00 997.8
20260505094458 0 0.0 0.0 0.00 0.00 0.00 997.7
20260505092000 0 0.0 0.0 0.00 0.00 0.00 997.6
20260505091459 0 0.0 0.0 0.00 0.00 0.00 997.5
20260505090459 0 0.0 0.0 0.00 0.00 0.00 997.5
20260505085959 0 0.0 0.0 0.00 0.00 0.00 997.4
20260505085504 0 0.0 0.0 0.00 0.00 0.00 997.4
20260505084958 0 0.0 0.0 0.00 0.00 0.00 997.4
20260505084503 0 0.0 0.0 0.00 0.00 0.00 997.3
20260505083958 0 0.0 0.0 0.00 0.00 0.00 997.3
20260505083459 0 0.0 0.0 0.00 0.00 0.00 997.2
20260505082958 0 0.0 0.0 0.00 0.00 0.00 997.2
20260505082459 0 0.0 0.0 0.00 0.00 0.00 997.1
20260505081959 0 0.0 0.0 0.00 0.00 0.00 997.1
20260505081500 0 0.0 0.0 0.00 0.00 0.00 997.1
20260505081001 0 0.0 0.0 0.00 0.00 0.00 997.1
20260505080459 0 0.0 0.0 0.00 0.00 0.00 997.1
20260505075958 0 0.0 0.0 0.00 0.00 0.00 997.1
20260505075459 0 0.0 0.0 0.00 0.00 0.00 997.1
20260505074959 0 0.0 0.0 0.00 0.00 0.00 997.0
20260505074459 0 0.0 0.0 0.00 0.00 0.00 997.0
20260505073958 0 0.0 0.0 0.00 0.00 0.00 997.0
20260505073459 0 0.0 0.0 0.00 0.00 0.00 997.0
20260505072458 0 0.0 0.0 0.00 0.00 0.00 996.9
20260505071958 0 0.0 0.0 0.00 0.00 0.00 996.9
20260505071458 0 0.0 0.0 0.00 0.00 0.00 996.7
20260505071000 0 0.0 0.0 0.00 0.00 0.00 996.7
20260505070458 0 0.0 0.0 0.00 0.00 0.00 996.7
20260505070004 0 0.0 0.0 0.00 0.00 0.00 996.6
20260505065501 0 0.0 0.0 0.00 0.00 0.00 996.6
20260505065000 0 0.0 0.0 0.00 0.00 0.00 996.5
20260505064500 0 0.0 0.0 0.00 0.00 0.00 996.4
20260505064001 0 0.0 0.0 0.00 0.00 0.00 996.5
20260505063000 0 0.0 0.0 0.00 0.00 0.00 996.4
20260505062000 0 0.0 0.0 0.00 0.00 0.00 996.5
20260505061502 0 0.0 0.0 0.00 0.00 0.00 996.5
20260505061001 0 0.0 0.0 0.00 0.00 0.00 996.5
20260505060502 0 0.0 0.0 0.00 0.00 0.00 996.3
20260505055505 0 0.0 0.0 0.00 0.00 0.00 996.3
20260505055000 0 0.0 0.0 0.00 0.00 0.00 996.3
20260505054501 0 0.0 0.0 0.00 0.00 0.00 996.2
20260505054001 0 0.0 0.0 0.00 0.00 0.00 996.2
20260505053002 0 0.0 0.0 0.00 0.00 0.00 996.1
20260505052503 0 0.0 0.0 0.00 0.00 0.00 996.2
20260505052000 0 0.0 0.0 0.00 0.00 0.00 996.2
20260505051002 0 0.0 0.0 0.00 0.00 0.00 996.2
20260505050500 0 0.0 0.0 0.00 0.00 0.00 996.2
20260505041003 0 0.0 0.0 0.00 0.00 0.00 995.7
20260505040504 0 0.0 0.0 0.00 0.00 0.00 995.6
20260505040004 0 0.0 0.0 0.00 0.00 0.00 995.5
20260505034003 0 0.0 0.0 0.00 0.00 0.00 995.2
20260505033502 0 0.0 0.0 0.00 0.00 0.00 995.1
20260505033002 0 0.0 0.0 0.00 0.00 0.00 995.1
20260505032503 0 0.0 0.0 0.00 0.00 0.00 995.1
20260505031959 0 0.0 0.0 0.00 0.00 0.00 995.1
20260505031001 0 0.0 0.0 0.00 0.00 0.00 995.0
20260505030459 0 0.0 0.0 0.00 0.00 0.00 994.9
20260505025958 0 0.0 0.0 0.00 0.00 0.00 994.9
20260505025458 0 0.0 0.0 0.00 0.00 0.00 994.8
20260505024958 0 0.0 0.0 0.00 0.00 0.00 994.8
20260505024501 0 0.0 0.0 0.00 0.00 0.00 994.7
20260505024000 0 0.0 0.0 0.00 0.00 0.00 994.7
20260505023459 0 0.0 0.0 0.00 0.00 0.00 994.7
20260505022459 0 0.0 0.0 0.00 0.00 0.00 994.8
20260505022001 0 0.0 0.0 0.00 0.00 0.00 994.7
20260505021458 0 0.0 0.0 0.00 0.00 0.00 994.7
20260505020959 0 0.0 0.0 0.00 0.00 0.00 994.7
20260505015959 0 0.0 0.0 0.00 0.00 0.00 994.6
20260505015458 0 0.0 0.0 0.00 0.00 0.00 994.7
20260505014959 0 0.0 0.0 0.00 0.00 0.00 994.6
20260505014458 0 0.0 0.0 0.00 0.00 0.00 994.6
20260505013958 0 0.0 0.0 0.00 0.00 0.00 994.7
20260505013458 0 0.0 0.0 0.00 0.00 0.00 994.7
20260505013001 0 0.0 0.0 0.00 0.00 0.00 994.7
20260505012500 0 0.0 0.0 0.00 0.00 0.00 994.7
20260505011500 0 0.0 0.0 0.00 0.00 0.00 994.8
20260505010500 0 0.0 0.0 0.00 0.00 0.00 994.8
20260505010001 0 0.0 0.0 0.00 0.00 0.00 994.8